Regional Weather Roundup
Issued by NWS Wakefield, VA

Home | Current Version | Previous Version | Graphics & Text | Print | Product List | Glossary On
Versions: 1 2 3 4 5 6 7 8 9 10 11 12 13 14 15 16 17 18 19 20 21 22 23 24 25 26 27 28 29 30 31 32 33 34 35 36 37 38 39 40 41 42 43 44 45 46 47 48 49 50
000
ASUS41 KAKQ 261910
RWRAKQ

REGIONAL WEATHER ROUNDUP
NATIONAL WEATHER SERVICE WAKEFIELD VA
200 PM EST FRI DEC 26 2014

Note: "fair" indicates few or no clouds below 12,000 feet with no
significant weather and/or obstructions to visibility. * = Denotes
station may not report precipitation (e.g., rain,snow,etc.),
thunder or fog.

VAZ042-051-052>054-056-262000-
NORTHERN VIRGINIA

CITY           SKY/WX    TMP DP  RH WIND       PRES   REMARKS
WASH NATIONAL  PTSUNNY   51  33  50 S13       30.27F
DULLES         FAIR      49  31  49 VRB5      30.25F
FORT BELVOIR   FAIR      51  31  47 VRB1      30.27F
QUANTICO       FAIR      47  37  68 S8        30.28F
FREDERICKSBRG* FAIR      53  33  46 SW3       30.26F
STAFFORD*      FAIR      51  30  43 CALM      30.31S
WARRENTON      FAIR      53  38  56 S5        30.25F
CULPEPER*      FAIR      54  34  47 S5        30.26F
MANASSAS*      SUNNY     52  34  50 S3        30.27F
LEESBURG*      FAIR      52  34  50 CALM      30.26F
WINCHESTER     FAIR      52  23  32 CALM      30.23F
FRONT ROYAL*   FAIR      52  30  43 S3        30.22F
LURAY*         FAIR      54  34  47 SW3       30.22F
$$

VAZ048-049-060>072-079>083-262000-
CENTRAL AND SOUTH CENTRAL VIRGINIA

CITY           SKY/WX    TMP DP  RH WIND       PRES   REMARKS
RICHMOND       PTSUNNY   56  33  42 CALM      30.27F
CHESTERFIELD*  FAIR      55  28  35 S7        30.27F
PETERSBURG*    FAIR      57  30  36 S5        30.27F
HANOVER        FAIR      53  32  44 CALM      30.28F
TAPPAHANNOCK*  FAIR      54  28  37 CALM      30.28F
QUINTON*       FAIR      54  33  44 SE5       30.27S
CHARLOTTSVILLE FAIR      51  30  44 CALM      30.24F
GORDONSVILLE*  FAIR      50  32  50 CALM      30.24F
ORANGE*        FAIR      52  32  46 SE3       30.27F
LOUISA*        FAIR      54  34  47 CALM      30.25F
BUMPASS*       FAIR      52  32  47 CALM      30.26F
FARMVILLE*     FAIR      61  31  32 SW7       30.24F
CREWE*         FAIR      55  30  38 W5        30.26F
FORT PICKETT*  FAIR      54  33  45 SW6       30.27S
CHASE CITY*    FAIR      56  36  47 CALM      30.26F
CLARKSVILLE*   FAIR      55  34  44 W5        30.25F
SOUTH HILL*    FAIR      54  33  44 SW7       30.32F
LAWRENCEVILLE* FAIR      55  35  47 SW6       30.26F
EMPORIA*       FAIR      54  34  47 S6        30.29F
$$

VAZ088>098-262000-
SOUTHEAST VIRGINIA

CITY           SKY/WX    TMP DP  RH WIND       PRES   REMARKS
NORFOLK        FAIR      50  41  71 NE8       30.28F
VIRGINIA BEACH FAIR      54  42  64 E8        30.27F
NORFOLK NAVAL  FAIR      54  40  59 N8        30.29F
WEST POINT*    FAIR      56  31  38 CALM      30.29F
SALUDA*        FAIR      48  32  54 E7        30.28F
NEWPORT NEWS   FAIR      57  37  47 W6        30.28F
LANGLEY AFB    FAIR      52  42  68 E7        30.28F
FORT EUSTIS    FAIR      54  54  98 S3        30.26F
WILLIAMSBURG*  FAIR      57  39  51 CALM      30.29S
HR EXEC AP*    FAIR      55  37  50 SW5       30.29F
FRANKLIN*      FAIR      55  34  44 W5        30.28F
WAKEFIELD      FAIR      56  34  43 W8        30.27F
$$

VAZ020-022-025-037-045-262000-
WEST CENTRAL AND SOUTHWEST VIRGINIA

CITY           SKY/WX    TMP DP  RH WIND       PRES   REMARKS
STAUNTON*      FAIR      53  32  44 SW5       30.23F
WAYNESBORO*    FAIR      54  23  30 SW6       30.22F
HOT SPRINGS VA FAIR      44  17  34 W9        30.19F
LYNCHBURG      FAIR      54  30  40 S7        30.26F
DANVILLE       FAIR      57  33  40 SW7       30.27F
SOUTH BOSTON*  FAIR      56  31  39 W6        30.27F
MARTINSVILLE   FAIR      60  30  31 SW6       30.28F
ROANOKE        FAIR      57  24  28 CALM      30.26F
BLACKSBURG     FAIR      53  18  25 W7        30.28F
DUBLIN*        FAIR      56  23  27 SW5       30.26S
MARION*        FAIR      56  13  18 SW10      30.26F
HILLSVILLE*    FAIR      54  15  21 CALM      30.24F
RICHLANDS*     FAIR      50  18  28 CALM      30.24F
WISE*          FAIR      54  23  30 SE6       30.24F
ABINGDON*      FAIR      56  25  31 W6        30.25F
$$

MDZ021>025-VAZ099-100-262000-
SOUTHERN MARYLAND AND THE DELMARVA PENINSULA

CITY           SKY/WX    TMP DP  RH WIND       PRES   REMARKS
PATUXENT RIVER PTSUNNY   47  29  49 SE8       30.28F
BAY BRIDGE APT   N/A     52  30  43 SW5       30.26F
LEONARDTOWN    FAIR      50  32  50 SW5       30.29F
DOVER          FAIR      51  31  45 W9        30.23F
GEORGETOWN     FAIR      52  32  46 W8        30.27S
EASTON         SUNNY     52  36  54 W6        30.31S
CAMBRIDGE      FAIR      52  32  46 W8        30.27F
SALISBURY      FAIR      53  33  46 W7        30.27F
OCEAN CITY     FAIR      48  37  65 S7        30.27F
WALLOPS ISLAND FAIR      53  34  48 W8        30.28F
ACCOMACK*      FAIR      50  34  53 NW5       30.28S
$$

NCZ012>017-030>032-262000-
NORTH CENTRAL AND EASTERN NORTH CAROLINA

CITY           SKY/WX    TMP DP  RH WIND       PRES   REMARKS
ROANOKE RAPIDS FAIR      54  34  47 SW6       30.27F
RALEIGH        FAIR      57  35  43 SW6       30.29F
ELIZABETH CITY FAIR      59  36  42 W7        30.28F
AHOSKIE*       FAIR      54  35  47 CALM      30.28F
EDENTON*       FAIR      56  36  47 SW3       30.29F
CURRITUCK*     FAIR      56  32  39 W5        30.28F
KILL DEVIL HLS FAIR      54  40  58 W3        30.27F
MANTEO         FAIR      55  39  54 NW7       30.29S
CAPE HATTERAS  FAIR      54  42  64 VRB6      30.28F
TARBORO*       FAIR      57  35  42 SW5       30.29F
GOLDSBORO      FAIR      58  39  49 W3        30.27F
WASHINGTON     FAIR      56  35  44 W3        30.29F
GREENVILLE     FAIR      57  34  41 W5        30.29F
NEW BERN       FAIR      61  36  39 CALM      30.29F
WILMINGTON     FAIR      61  40  45 NW5       30.28F
$$

VAZ048-262000-
ELSEWHERE

CITY           SKY/WX    TMP DP  RH WIND       PRES   REMARKS
HARRISBURG PA  FAIR      48  29  47 W7        30.22F
BALTIMORE      FAIR      52  29  41 SW8       30.24F
ANNAPOLIS      FAIR      52  29  41 SW6       30.25F
ANDREWS AFB    FAIR      51  31  47 S6        30.26F
PHILADELPHIA   FAIR      49  30  48 SW12      30.24F
HENDERSON NC   FAIR      56  32  38 SW5       30.27F
GREENSBORO     FAIR      56  32  40 W8        30.27F
ROCKY MOUNT    FAIR      57  34  41 VRB5      30.28F
$$

VAZ100-262000-
MARINE

STATION/POSITION TIME  TEMP    WIND        PRES    WAVE   SWELL
                       AIR SEA DIR/SP/G            HT/PER HT/PER
                 (UTC) (F)     (DEG/KT/KT) (MB)    (FT/S) (FT/S)
CAPE MAY NJ      1900   45 46  250/  5/  5 1024.1F
LEWES DE         1900   49 45  290/ 12/ 14 1024.3F
15NM E FENWICK I 1900   46 46              1024.7F   2/ 8
OCEAN-CITY-INLET 1900   47 45  190/  8/ 10 1024.7F
WACHAPREAGUE VA  1900   49 47  190/  4/  6 1025.5F
THOMAS POINT MD  1900   43 43  170/  9/ 10 1025.8F
GOOSES REEF MD   1900   45     VRB  6/  6  1024.4F
COVE POINT MD    1900   43     170/  6/  6 1025.1F
SOLOMONS ISLAND  1900      44                N/A
BISHOPS HEAD MD  1900   44 46  250/  5/  6 1025.1F
PINEY POINT MD   1900          100/  3/  3   N/A
POTOMAC MD       1900   47      CALM  /  2 1024.8F
CAMBRIDGE MD     1900   45 42  340/  8/  8 1025.0F
LEWISETTA VA     1900   44 45   80/  4/  5 1025.0F
RAPPAHANNOCK LGT 1900          330/  5/  5 1026.0F
STINGRAY PT      1900   45      60/  4/  4 1026.0F
YORK RVR RNG VA  1900   46      80/  5/  5 1024.8F
YORKTOWN VA      1900   51 46   80/  4/  5 1025.1F
JAMESTOWN VA     1900   51     160/  2/  4   N/A
DOMINION TERM VA 1900   48      80/  6/  7 1025.5R
KIPTOPEKE VA     1900      51  320/  3/  3   N/A
CHES BAY BRIDGE  1900   47 45   30/  7/  9 1025.0S
CAPE HENRY VA    1900   48      70/  6/  7 1024.0F
CHESAPEAKE LGHT  1800   49      70/  3/  3 1026.5F
WILLOUBY STN VA  1900   46      50/  5/  6 1026.1R
S CRANEY ISL VA  1900          360/  8/  8 1025.1F
CAPE HENRY BUOY  1900      49                N/A     2/ 7
1ST LANDING BUOY 1900   48      70/  8/  8 1025.0F
CAPE CHARLES BUO 1900      49                N/A     1/ 8   2/ 8
64NM E OF VA BCH 1900   51 52  360/  6/  6 1025.1F   3/ 8   3/ 8
DUCK PIER NC     1900   52 51  260/  7/  9 1024.8S
44100 DUCK FRF   1900      51                N/A     2/ 8   2/13
44056 DUCK FRF   1900      51                N/A     2/11
OREGON INLET NC  1900   54 53  210/  2/  3 1025.5F
HATTERAS NC      1900   53 55  310/  7/  8 1025.8F
CAPE LOOKOUT NC  1900   57     310/  5/  6 1025.5F
$$


USA.gov is the U.S. government's official web portal to all federal, state and local government web resources and services.